Theta_e
329 331 331 331 329 330 329 329 331 332 335 343 345 351 348 346 346 346 350 352 350 349 349 348 347 343 344 343 341 342 345 346 345 349 345 349 347 348 349 349 350 349 352 352
330 331 330 327 329 330 330 330 329 330 333 345 352 349 345 344 343 344 350 350 351 349 348 348 346 344 344 343 344 343 344 347 345 350 347 346 349 347 347 350 353 346 352 352
326 327 327 327 327 328 328 328 328 329 332 342 344 352 349 343 345 348 351 348 349 350 349 348 347 345 344 344 344 344 344 349 346 348 346 346 346 349 348 351 351 346 348 348
329 328 327 326 327 327 328 328 327 328 329 334 337 352 351 350 351 344 343 349 348 350 349 348 347 346 344 345 344 344 345 347 345 346 345 345 346 348 346 350 350 345 349 350
327 328 327 327 327 327 327 328 328 327 327 329 333 337 351 352 349 348 343 349 347 348 349 349 347 347 345 346 346 345 345 346 345 342 346 346 346 346 350 345 350 348 349 348
324 325 327 326 326 326 326 326 328 328 327 328 328 333 339 354 348 343 343 349 348 347 349 350 348 347 346 346 347 347 347 343 342 339 344 344 344 347 347 344 351 350 350 347
319 321 325 327 326 326 327 326 327 328 328 328 327 327 334 341 346 343 344 349 350 349 348 350 350 349 348 346 347 347 347 346 340 333 338 344 342 348 345 347 352 351 352 352
321 322 321 324 328 327 327 327 328 330 329 328 329 328 329 331 346 346 346 348 348 351 350 350 350 351 350 348 347 348 349 347 345 338 329 340 340 342 347 348 346 350 346 349
320 319 322 323 323 325 327 329 327 328 329 330 330 330 329 330 332 349 345 340 343 348 351 351 351 350 351 350 348 348 350 348 347 342 332 331 333 332 345 345 349 346 348 348
318 318 320 321 323 324 324 326 328 328 331 333 330 333 332 332 331 336 347 347 347 349 347 350 351 351 351 351 351 349 350 350 349 348 340 330 330 328 330 341 347 350 346 346
317 317 318 319 321 323 324 325 327 328 330 331 331 332 334 337 333 333 347 344 339 341 341 348 347 351 351 352 352 351 351 353 353 351 349 343 333 331 329 336 341 345 350 351
317 317 318 318 319 320 320 324 325 329 332 331 331 331 332 334 333 333 332 342 341 343 345 342 343 349 352 352 352 353 352 353 355 354 353 351 348 338 331 329 336 345 345 348
316 317 318 318 318 319 319 319 321 323 325 332 334 331 331 333 333 333 331 331 340 345 339 341 347 351 351 351 352 353 353 353 355 357 356 355 353 352 342 334 334 340 342 342
313 314 316 319 320 319 319 319 319 320 324 324 326 330 334 333 332 333 332 332 333 342 344 347 350 353 353 352 351 352 353 354 354 357 357 356 355 354 350 345 337 338 342 336
313 314 314 315 316 316 316 318 318 319 321 326 326 327 331 335 335 333 334 337 333 333 338 340 346 343 349 354 353 352 352 353 353 353 356 356 356 355 355 350 346 342 334 334
315 314 313 314 314 316 317 317 317 317 319 321 322 326 329 330 331 331 335 339 341 342 342 343 341 347 353 355 355 355 354 353 352 352 354 355 356 357 355 355 353 351 344 338
315 317 317 317 314 314 316 316 317 317 318 320 323 325 328 328 333 331 334 337 340 341 341 342 342 343 350 347 354 358 356 354 353 352 353 353 354 355 356 356 355 353 352 343
313 313 317 316 315 317 315 316 316 316 317 317 319 321 323 324 327 329 330 332 334 341 343 344 344 344 345 348 340 359 358 355 355 353 353 354 353 353 354 355 355 354 353 348
312 313 317 316 313 314 314 316 320 322 322 318 325 325 321 319 321 327 334 334 333 337 340 342 345 347 348 346 345 348 358 357 355 357 353 355 353 353 353 354 354 355 353 352
313 313 316 315 314 314 314 317 316 317 320 323 324 326 327 329 322 328 330 332 334 334 337 338 338 342 349 350 349 349 348 360 357 356 357 356 356 354 354 352 352 354 353 345
316 317 316 316 316 312 315 316 316 319 320 319 319 320 323 326 327 326 326 329 329 329 333 335 336 338 347 359 361 352 348 350 360 358 356 359 358 357 356 356 355 354 354 354
315 315 317 315 317 314 316 315 316 317 315 315 317 317 320 320 323 323 325 325 325 326 329 332 332 335 340 353 357 360 355 347 353 360 358 357 360 360 359 360 359 358 358 358
315 313 316 316 315 315 313 312 313 313 313 314 315 316 318 320 321 322 321 322 322 324 328 328 327 331 338 346 351 355 361 356 346 357 360 357 361 360 361 361 362 361 360 360
309 307 311 311 312 312 310 311 310 310 311 313 316 317 318 319 320 321 320 321 322 324 325 324 324 331 338 343 346 350 356 360 358 348 360 358 360 362 361 361 362 361 361 361
307 305 306 308 309 307 308 307 306 307 309 310 312 315 316 317 317 318 319 320 321 322 323 322 321 321 330 336 342 350 354 356 354 355 360 359 359 362 362 360 363 362 362 362
306 306 308 309 303 305 305 306 304 305 307 309 311 311 313 315 315 315 316 317 320 322 322 322 320 316 320 328 335 343 353 357 361 364 362 361 360 362 361 361 362 364 362 363
Wind_Speed
22 12 16 20 21 21 20 21 19 17 19 13 11 20 14 12 17 13 29 35 35 34 33 34 32 31 31 29 30 27 25 25 25 21 20 16 11 11 7 11 14 5 6 6
13 19 19 19 20 20 21 21 20 17 20 15 14 15 14 19 15 8 28 33 38 38 35 35 33 33 32 33 30 30 29 27 26 19 20 16 16 13 13 11 9 5 9 9
20 14 23 21 19 19 19 20 18 17 16 18 16 14 13 12 8 16 31 32 35 42 41 38 36 36 35 35 33 35 33 27 27 24 22 19 17 17 12 14 12 7 6 7
20 22 19 20 22 19 19 16 19 19 18 14 18 10 11 13 15 22 30 34 35 38 40 39 38 38 38 37 36 34 36 31 30 26 23 23 20 15 18 18 12 7 9 6
16 20 20 21 17 21 18 18 15 16 18 19 23 13 11 24 16 18 26 31 39 38 43 43 43 41 39 38 40 37 35 36 31 33 26 25 22 19 15 14 18 15 11 11
15 21 15 19 20 16 16 18 17 18 15 16 21 19 16 19 20 17 32 43 43 41 41 44 44 41 39 38 40 38 37 39 37 34 31 29 28 22 16 17 18 17 12 13
16 18 18 13 15 19 17 13 12 14 14 18 19 19 14 14 26 21 18 41 39 43 41 41 43 43 43 43 43 43 41 40 40 38 37 33 31 28 24 20 18 15 17 13
14 12 22 18 17 15 18 19 14 17 15 18 20 20 17 23 30 41 46 36 29 43 42 40 45 47 49 47 47 45 45 42 42 42 39 38 34 33 29 19 24 18 16 19
9 14 15 13 21 17 21 19 21 23 22 15 17 17 23 20 21 31 27 23 32 26 31 42 42 45 46 47 49 49 47 45 42 43 43 43 40 35 34 28 23 24 21 15
10 14 16 16 8 12 16 18 17 15 21 24 18 20 14 19 17 18 19 29 37 41 27 23 42 43 43 46 45 46 45 47 45 41 44 44 44 42 37 34 28 25 24 22
9 9 16 18 13 12 13 15 18 17 16 18 16 16 16 12 21 19 21 29 22 17 42 38 35 41 45 44 43 45 45 44 46 44 42 45 45 44 42 36 35 31 28 24
10 8 12 18 18 21 14 20 19 14 18 15 16 18 22 11 7 19 22 37 42 48 45 21 52 43 47 46 46 46 46 45 45 45 42 44 43 44 44 44 39 38 34 32
8 8 12 16 15 17 20 18 20 20 19 21 16 14 24 18 11 12 21 19 20 43 46 42 55 52 51 49 46 46 46 48 43 43 43 42 43 43 43 44 45 40 40 36
4 12 17 15 16 15 12 14 19 21 16 17 20 23 22 16 6 14 12 10 15 24 51 46 54 33 46 47 48 46 44 44 43 42 43 44 46 46 45 42 41 46 40 40
7 15 17 21 24 19 20 19 18 19 24 21 20 23 22 7 23 14 30 27 12 19 8 10 20 26 42 48 48 47 43 43 42 43 44 46 47 46 43 43 43 41 47 45
13 15 16 20 20 18 22 23 20 20 22 22 28 25 20 20 22 32 21 32 24 10 13 14 8 8 31 37 46 47 46 42 43 43 45 41 43 43 45 44 43 41 42 42
11 10 9 18 20 16 19 20 21 19 21 20 21 19 17 15 10 20 21 22 35 19 19 21 20 16 18 32 25 37 43 42 42 44 42 43 42 45 46 45 44 44 43 43
14 16 6 10 12 16 17 19 21 23 25 22 21 23 22 22 17 15 18 12 19 31 24 20 18 22 14 5 26 34 38 40 40 43 41 43 44 45 46 46 45 45 45 45
18 15 7 8 9 16 22 14 6 15 13 15 14 19 31 31 30 7 20 19 6 20 22 21 20 20 21 21 11 3 32 38 42 39 45 43 47 46 46 47 47 47 46 45
17 17 9 9 11 11 16 6 17 16 11 18 25 20 22 33 15 7 14 16 19 17 20 21 22 19 17 23 21 19 12 33 38 37 42 43 43 45 46 48 46 47 47 47
6 11 12 12 11 13 1 2 8 9 4 21 20 24 25 14 11 9 4 7 9 17 19 20 21 18 17 16 16 27 25 19 36 40 36 38 42 45 45 44 44 45 46 44
7 5 9 6 8 14 15 7 3 9 20 24 24 20 23 17 16 12 12 11 12 14 16 17 19 17 15 19 16 18 29 31 16 33 39 40 40 41 43 42 43 43 43 43
3 5 4 6 3 12 11 10 13 15 18 23 26 24 21 18 13 12 10 10 10 11 13 15 17 16 13 15 15 10 18 29 37 18 38 37 39 42 41 41 42 43 43 42
9 12 4 9 5 21 19 17 12 13 17 20 23 22 21 14 12 9 8 14 13 12 13 15 16 15 13 14 13 11 15 25 26 30 36 38 38 40 43 41 42 45 43 43
3 10 6 6 10 23 15 15 17 16 14 17 18 13 11 13 13 10 7 8 10 12 12 13 15 15 14 13 12 10 10 16 24 29 36 37 38 38 40 43 38 43 42 42
3 3 3 3 11 9 11 16 18 19 16 17 15 17 12 15 14 14 11 7 7 9 12 11 13 14 14 13 10 8 6 11 16 20 28 30 32 33 37 39 37 38 36 37
Wind_Direction
208 210 217 226 230 242 266 280 236 238 231 227 223 132 137 265 255 285 163 168 177 189 191 181 178 177 174 178 182 184 179 189 185 185 177 181 182 174 176 201 193 159 151 189
200 229 228 229 237 232 252 264 275 272 251 182 149 161 167 190 239 252 175 181 178 180 193 180 183 181 181 180 185 185 184 195 196 189 174 178 190 184 189 211 161 227 168 192
228 225 218 236 235 243 235 249 262 274 280 199 213 156 206 220 346 283 246 186 189 178 192 181 188 184 186 185 189 188 190 196 202 183 179 188 200 187 196 198 211 218 195 203
233 242 249 215 239 238 246 244 254 277 279 270 235 221 171 211 172 249 285 179 195 185 186 183 188 189 188 188 191 195 194 198 204 184 191 191 195 200 191 204 212 215 198 214
241 237 237 248 228 237 254 257 258 241 266 276 267 256 172 171 186 182 283 215 189 195 187 185 189 192 190 188 188 198 201 198 206 192 191 190 190 197 203 208 203 211 208 198
281 281 237 246 251 239 250 252 265 270 256 247 251 261 250 166 179 176 218 244 184 189 192 187 188 191 191 189 187 195 204 205 207 199 189 198 189 194 199 198 201 195 215 213
237 252 265 272 247 242 221 239 237 242 240 247 236 243 248 220 167 166 199 241 187 180 190 188 184 188 192 192 192 195 205 209 209 207 196 197 202 190 198 207 197 204 208 214
288 229 218 226 230 244 223 225 231 230 236 243 236 249 237 254 189 183 189 207 283 178 184 190 188 191 192 194 192 193 202 210 211 210 205 203 205 196 200 201 206 201 209 217
316 257 296 208 222 223 250 223 237 260 265 253 259 234 229 245 250 195 168 152 209 269 187 185 192 194 195 195 196 195 199 211 214 211 214 207 212 209 201 202 199 213 206 215
317 313 295 297 238 258 239 262 235 233 252 262 265 257 257 202 229 238 167 171 185 222 274 271 187 195 199 199 199 197 200 209 215 217 216 216 214 218 212 203 207 205 209 205
315 285 289 302 266 241 241 257 264 275 239 251 259 258 268 246 201 218 158 162 158 173 225 253 257 197 198 200 199 200 200 205 209 215 218 218 221 220 218 214 209 212 202 210
318 316 285 270 272 281 248 270 266 247 246 265 253 257 262 316 266 200 215 169 182 177 183 217 221 229 190 196 198 200 201 203 210 213 215 216 216 223 222 217 217 215 214 211
352 284 281 260 264 274 269 242 255 267 261 257 263 239 263 288 309 232 206 221 194 167 179 181 218 226 187 190 194 198 201 205 207 206 210 209 212 217 225 224 217 220 220 223
312 266 269 281 290 333 302 268 251 270 259 257 252 263 278 255 321 3 330 252 247 183 187 202 206 185 180 189 191 195 200 202 205 209 208 209 214 214 221 225 223 216 222 226
249 267 263 270 282 297 296 279 283 283 258 259 252 245 259 291 1 344 5 344 269 235 251 243 215 179 223 190 191 193 197 201 203 207 209 213 212 213 215 217 226 224 225 229
276 268 266 276 272 275 271 278 261 267 279 271 264 265 282 318 61 302 353 359 345 19 15 14 357 243 185 187 189 193 195 199 201 207 211 211 213 214 213 217 215 224 226 227
257 274 291 265 273 270 274 255 262 260 264 270 272 268 274 295 31 348 344 7 351 359 2 360 350 352 188 204 187 197 198 196 201 206 211 211 213 215 216 215 218 216 225 228
261 266 201 269 281 273 265 267 273 266 255 263 269 277 284 288 291 300 310 344 329 342 347 343 332 329 346 118 202 210 200 200 203 207 210 211 211 218 218 217 216 221 220 228
253 245 235 260 241 257 275 284 350 342 298 251 335 315 286 268 271 6 18 11 339 321 337 331 327 323 317 307 285 317 199 208 208 211 213 216 214 216 220 220 219 219 220 225
254 253 190 225 235 256 251 56 318 323 264 21 0 346 349 360 245 94 28 8 352 327 326 323 322 311 323 314 297 290 260 212 213 218 216 216 220 213 220 226 225 221 223 230
303 246 251 241 251 250 123 50 341 252 339 345 345 339 347 2 30 7 327 341 357 329 324 323 320 322 306 293 285 277 257 246 225 223 220 219 219 220 217 222 224 224 223 225
300 258 227 221 243 243 34 317 311 354 319 325 324 316 322 330 351 352 354 7 348 325 324 326 321 319 311 283 298 253 256 229 230 226 220 217 220 219 215 219 220 223 221 221
346 7 314 309 289 50 43 360 335 334 316 314 316 305 301 309 318 341 334 349 331 325 328 324 323 317 307 294 298 280 236 251 237 232 222 218 217 216 215 217 220 220 222 222
341 18 289 335 321 343 331 315 324 333 320 309 312 292 294 300 311 326 330 332 339 342 332 337 338 321 317 318 303 290 243 220 231 228 222 216 212 214 214 216 221 222 221 224
314 320 311 271 327 338 19 355 344 328 316 322 314 305 311 294 298 307 315 325 326 329 325 338 350 344 329 315 328 304 258 228 217 218 212 209 210 212 214 216 219 221 222 223
310 311 325 326 311 314 311 336 339 336 329 326 310 305 299 279 283 283 276 294 314 329 333 337 345 349 342 320 331 347 284 214 195 192 196 204 206 212 213 217 217 218 224 222